******** Week 358 almanac for PRN-1 ******** ID: 1 Health: 0 Eccentricity: 0.001519680023 Time of Applicability(s): 147456 Orbital Inclination(rad): 0.9584347915 Rate of Right Ascen(r/s): -7.748894201e-09 SQRT(A) (m 1/2): 5153.583496 Right Ascen at Week(rad): -2.895126958 Argument of Perigee(rad): 0.04968921803 Mean Anom(rad): 0.1775369294 Af0(s): 0.0002615249878 Af1(s/s): -3.637979e-12 week: 358 ******** Week 358 almanac for PRN-2 ******** ID: 2 Health: 0 Eccentricity: 0.01694488525 Time of Applicability(s): 147456 Orbital Inclination(rad): 0.9637917401 Rate of Right Ascen(r/s): -7.611745631e-09 SQRT(A) (m 1/2): 5153.557129 Right Ascen at Week(rad): -3.057634546 Argument of Perigee(rad): -0.8231447271 Mean Anom(rad): 1.612473342 Af0(s): 3.165432129e-05 Af1(s/s): 7.275958e-12 week: 358 ******** Week 358 almanac for PRN-3 ******** ID: 3 Health: 0 Eccentricity: 0.006433963776 Time of Applicability(s): 147456 Orbital Inclination(rad): 0.9928954303 Rate of Right Ascen(r/s): -7.954617056e-09 SQRT(A) (m 1/2): 5153.585449 Right Ascen at Week(rad): -1.908600544 Argument of Perigee(rad): 1.204732934 Mean Anom(rad): -1.991377458 Af0(s): 0.0004484362183 Af1(s/s): -1.091394e-11 week: 358 ******** Week 358 almanac for PRN-4 ******** ID: 4 Health: 0 Eccentricity: 0.003738880157 Time of Applicability(s): 147456 Orbital Inclination(rad): 0.9705088981 Rate of Right Ascen(r/s): -7.977475151e-09 SQRT(A) (m 1/2): 5153.691895 Right Ascen at Week(rad): -0.8374141939 Argument of Perigee(rad): -2.88723572 Mean Anom(rad): 1.012225461 Af0(s): 3.542269287e-05 Af1(s/s): 3.637979e-12 week: 358 ******** Week 358 almanac for PRN-5 ******** ID: 5 Health: 0 Eccentricity: 0.005383491516 Time of Applicability(s): 147456 Orbital Inclination(rad): 0.9794850826 Rate of Right Ascen(r/s): -8.057478483e-09 SQRT(A) (m 1/2): 5153.645996 Right Ascen at Week(rad): -1.968180492 Argument of Perigee(rad): 1.419912689 Mean Anom(rad): 1.661570465 Af0(s): -0.0001808818359 Af1(s/s): 0 week: 358 ******** Week 358 almanac for PRN-6 ******** ID: 6 Health: 0 Eccentricity: 0.003872871399 Time of Applicability(s): 147456 Orbital Inclination(rad): 0.9873527262 Rate of Right Ascen(r/s): -7.428880871e-09 SQRT(A) (m 1/2): 5153.589844 Right Ascen at Week(rad): -2.944978337 Argument of Perigee(rad): -0.5853155367 Mean Anom(rad): -0.6497974079 Af0(s): -0.0004823515625 Af1(s/s): -3.637979e-12 week: 358 ******** Week 358 almanac for PRN-7 ******** ID: 7 Health: 0 Eccentricity: 0.02038192749 Time of Applicability(s): 147456 Orbital Inclination(rad): 0.9513581067 Rate of Right Ascen(r/s): -7.680319916e-09 SQRT(A) (m 1/2): 5153.585449 Right Ascen at Week(rad): 0.1710609538 Argument of Perigee(rad): -1.996665497 Mean Anom(rad): -1.530327098 Af0(s): -0.0001183268677 Af1(s/s): -3.637979e-12 week: 358 ******** Week 358 almanac for PRN-8 ******** ID: 8 Health: 0 Eccentricity: 0.01154279709 Time of Applicability(s): 147456 Orbital Inclination(rad): 0.9435503842 Rate of Right Ascen(r/s): -8.103194673e-09 SQRT(A) (m 1/2): 5153.619141 Right Ascen at Week(rad): 2.218943657 Argument of Perigee(rad): 0.517046276 Mean Anom(rad): 1.305116173 Af0(s): 0.0003881422729 Af1(s/s): -3.637979e-12 week: 358 ******** Week 358 almanac for PRN-9 ******** ID: 9 Health: 0 Eccentricity: 0.003380298614 Time of Applicability(s): 147456 Orbital Inclination(rad): 0.9646246437 Rate of Right Ascen(r/s): -8.091765626e-09 SQRT(A) (m 1/2): 5153.736816 Right Ascen at Week(rad): -0.9015661244 Argument of Perigee(rad): 2.074409411 Mean Anom(rad): 1.896511082 Af0(s): 0.0006082151733 Af1(s/s): 0 week: 358 ******** Week 358 almanac for PRN-10 ******** ID: 10 Health: 0 Eccentricity: 0.0109500885 Time of Applicability(s): 147456 Orbital Inclination(rad): 0.9924400297 Rate of Right Ascen(r/s): -7.966046103e-09 SQRT(A) (m 1/2): 5153.600586 Right Ascen at Week(rad): -1.911110115 Argument of Perigee(rad): -2.257781534 Mean Anom(rad): -2.97520817 Af0(s): -0.0004650170532 Af1(s/s): 0 week: 358 ******** Week 358 almanac for PRN-11 ******** ID: 11 Health: 0 Eccentricity: 0.00221824646 Time of Applicability(s): 147456 Orbital Inclination(rad): 0.9641992037 Rate of Right Ascen(r/s): -7.668890868e-09 SQRT(A) (m 1/2): 5153.524902 Right Ascen at Week(rad): -2.925879977 Argument of Perigee(rad): -2.292924899 Mean Anom(rad): 0.3990862992 Af0(s): -0.0003451828369 Af1(s/s): 1.455192e-11 week: 358 ******** Week 358 almanac for PRN-12 ******** ID: 12 Health: 0 Eccentricity: 0.009057998657 Time of Applicability(s): 147456 Orbital Inclination(rad): 0.9588242788 Rate of Right Ascen(r/s): -8.046049436e-09 SQRT(A) (m 1/2): 5153.719238 Right Ascen at Week(rad): 1.288734861 Argument of Perigee(rad): 1.555476368 Mean Anom(rad): -2.173661264 Af0(s): -0.0004800905395 Af1(s/s): 0 week: 358 ******** Week 358 almanac for PRN-13 ******** ID: 13 Health: 0 Eccentricity: 0.009959220886 Time of Applicability(s): 147456 Orbital Inclination(rad): 0.9762313655 Rate of Right Ascen(r/s): -7.863184676e-09 SQRT(A) (m 1/2): 5153.628418 Right Ascen at Week(rad): -0.7266466246 Argument of Perigee(rad): 0.9985964014 Mean Anom(rad): 1.048366887 Af0(s): 0.0005426455078 Af1(s/s): 0 week: 358 ******** Week 358 almanac for PRN-14 ******** ID: 14 Health: 0 Eccentricity: 0.0066447258 Time of Applicability(s): 147456 Orbital Inclination(rad): 0.9421901747 Rate of Right Ascen(r/s): -8.251772291e-09 SQRT(A) (m 1/2): 5153.584961 Right Ascen at Week(rad): 1.234298017 Argument of Perigee(rad): -2.756737623 Mean Anom(rad): -2.343824899 Af0(s): 0.0005810828979 Af1(s/s): 3.637979e-12 week: 358 ******** Week 358 almanac for PRN-15 ******** ID: 15 Health: 0 Eccentricity: 0.01660299301 Time of Applicability(s): 147456 Orbital Inclination(rad): 0.9423998986 Rate of Right Ascen(r/s): -8.400349908e-09 SQRT(A) (m 1/2): 5153.632812 Right Ascen at Week(rad): -1.04528844 Argument of Perigee(rad): 1.499368474 Mean Anom(rad): 0.3042734784 Af0(s): 0.0003052380981 Af1(s/s): 3.637979e-12 week: 358 ******** Week 358 almanac for PRN-16 ******** ID: 16 Health: 0 Eccentricity: 0.01505851746 Time of Applicability(s): 147456 Orbital Inclination(rad): 0.9579494304 Rate of Right Ascen(r/s): -8.091765626e-09 SQRT(A) (m 1/2): 5153.577148 Right Ascen at Week(rad): 1.305743098 Argument of Perigee(rad): 0.9282003152 Mean Anom(rad): 2.322555521 Af0(s): 0.0001650546753 Af1(s/s): 7.275958e-12 week: 358 ******** Week 358 almanac for PRN-17 ******** ID: 17 Health: 0 Eccentricity: 0.01270484924 Time of Applicability(s): 147456 Orbital Inclination(rad): 0.9593156321 Rate of Right Ascen(r/s): -7.954617056e-09 SQRT(A) (m 1/2): 5153.526855 Right Ascen at Week(rad): 2.323424752 Argument of Perigee(rad): -1.125258423 Mean Anom(rad): 1.221230344 Af0(s): -5.04961792e-05 Af1(s/s): -1.091394e-11 week: 358 ******** Week 358 almanac for PRN-18 ******** ID: 18 Health: 0 Eccentricity: 0.005724906921 Time of Applicability(s): 147456 Orbital Inclination(rad): 0.972312524 Rate of Right Ascen(r/s): -7.577458489e-09 SQRT(A) (m 1/2): 5153.600098 Right Ascen at Week(rad): -2.949808355 Argument of Perigee(rad): -2.861528809 Mean Anom(rad): -0.7631973871 Af0(s): -0.0003346313965 Af1(s/s): 1.091394e-11 week: 358 ******** Week 358 almanac for PRN-19 ******** ID: 19 Health: 0 Eccentricity: 0.01106929779 Time of Applicability(s): 147456 Orbital Inclination(rad): 0.9585246732 Rate of Right Ascen(r/s): -7.931758961e-09 SQRT(A) (m 1/2): 5153.660156 Right Ascen at Week(rad): 2.36732484 Argument of Perigee(rad): 2.926274707 Mean Anom(rad): 3.052583944 Af0(s): 0.0005456602051 Af1(s/s): 0 week: 358 ******** Week 358 almanac for PRN-20 ******** ID: 20 Health: 255 Eccentricity: 0.0003008842468 Time of Applicability(s): 147456 Orbital Inclination(rad): 0.9600406777 Rate of Right Ascen(r/s): -8.137481816e-09 SQRT(A) (m 1/2): 5153.642578 Right Ascen at Week(rad): -0.8958852273 Argument of Perigee(rad): 1.39412788 Mean Anom(rad): 0.6766469403 Af0(s): 0 Af1(s/s): 0 week: 358 ******** Week 358 almanac for PRN-21 ******** ID: 21 Health: 0 Eccentricity: 0.0006823539734 Time of Applicability(s): 147456 Orbital Inclination(rad): 0.9623176804 Rate of Right Ascen(r/s): -8.274630386e-09 SQRT(A) (m 1/2): 5153.701172 Right Ascen at Week(rad): -1.90192196 Argument of Perigee(rad): -0.3846314515 Mean Anom(rad): -2.415198073 Af0(s): 0.0003150358643 Af1(s/s): 3.637979e-12 week: 358 ******** Week 358 almanac for PRN-22 ******** ID: 22 Health: 0 Eccentricity: 0.0121254921 Time of Applicability(s): 147456 Orbital Inclination(rad): 0.9573981561 Rate of Right Ascen(r/s): -8.126052768e-09 SQRT(A) (m 1/2): 5153.5625 Right Ascen at Week(rad): 1.309091939 Argument of Perigee(rad): -0.9945711998 Mean Anom(rad): 1.871043855 Af0(s): -3.617636719e-05 Af1(s/s): 3.637979e-12 week: 358 ******** Week 358 almanac for PRN-23 ******** ID: 23 Health: 0 Eccentricity: 0.006016731262 Time of Applicability(s): 147456 Orbital Inclination(rad): 0.9874486 Rate of Right Ascen(r/s): -8.000333246e-09 SQRT(A) (m 1/2): 5153.652344 Right Ascen at Week(rad): -1.94314245 Argument of Perigee(rad): -2.740805345 Mean Anom(rad): -1.885626035 Af0(s): 0.0004846125854 Af1(s/s): 3.637979e-12 week: 358 ******** Week 358 almanac for PRN-24 ******** ID: 24 Health: 0 Eccentricity: 0.01786708832 Time of Applicability(s): 147456 Orbital Inclination(rad): 0.9353771428 Rate of Right Ascen(r/s): -7.897471818e-09 SQRT(A) (m 1/2): 5153.60498 Right Ascen at Week(rad): 0.0628647498 Argument of Perigee(rad): 1.133554129 Mean Anom(rad): -0.5491351617 Af0(s): -9.420928955e-05 Af1(s/s): 1.455192e-11 week: 358 ******** Week 358 almanac for PRN-25 ******** ID: 25 Health: 0 Eccentricity: 0.01295280457 Time of Applicability(s): 147456 Orbital Inclination(rad): 0.947217557 Rate of Right Ascen(r/s): -8.160339911e-09 SQRT(A) (m 1/2): 5153.666016 Right Ascen at Week(rad): 1.195027585 Argument of Perigee(rad): 1.156178473 Mean Anom(rad): -2.317615773 Af0(s): 0.0003504585571 Af1(s/s): -3.637979e-12 week: 358 ******** Week 358 almanac for PRN-26 ******** ID: 26 Health: 0 Eccentricity: 0.01099634171 Time of Applicability(s): 147456 Orbital Inclination(rad): 0.9280427972 Rate of Right Ascen(r/s): -8.366062766e-09 SQRT(A) (m 1/2): 5153.642578 Right Ascen at Week(rad): 1.12072951 Argument of Perigee(rad): 0.7085055042 Mean Anom(rad): -3.140436552 Af0(s): -0.0002592639648 Af1(s/s): -7.275958e-12 week: 358 ******** Week 358 almanac for PRN-27 ******** ID: 27 Health: 0 Eccentricity: 0.01431846619 Time of Applicability(s): 147456 Orbital Inclination(rad): 0.9526643872 Rate of Right Ascen(r/s): -8.011762293e-09 SQRT(A) (m 1/2): 5153.606934 Right Ascen at Week(rad): 2.250849784 Argument of Perigee(rad): 0.8760554546 Mean Anom(rad): 1.40262507 Af0(s): -3.466901855e-05 Af1(s/s): -1.091394e-11 week: 358 ******** Week 358 almanac for PRN-28 ******** ID: 28 Health: 0 Eccentricity: 0.0004005432129 Time of Applicability(s): 147456 Orbital Inclination(rad): 0.9623176804 Rate of Right Ascen(r/s): -7.611745631e-09 SQRT(A) (m 1/2): 5153.745605 Right Ascen at Week(rad): 0.1451694104 Argument of Perigee(rad): 0.1217694623 Mean Anom(rad): -1.306501849 Af0(s): -0.0004695390991 Af1(s/s): 7.275958e-12 week: 358 ******** Week 358 almanac for PRN-29 ******** ID: 29 Health: 0 Eccentricity: 0.003323554993 Time of Applicability(s): 147456 Orbital Inclination(rad): 0.9619701379 Rate of Right Ascen(r/s): -7.874613723e-09 SQRT(A) (m 1/2): 5153.712402 Right Ascen at Week(rad): 2.340104171 Argument of Perigee(rad): 2.741641244 Mean Anom(rad): 1.27238351 Af0(s): -0.0002961940063 Af1(s/s): 7.275958e-12 week: 358 ******** Week 358 almanac for PRN-30 ******** ID: 30 Health: 0 Eccentricity: 0.008007526398 Time of Applicability(s): 147456 Orbital Inclination(rad): 0.9366175101 Rate of Right Ascen(r/s): -7.840326581e-09 SQRT(A) (m 1/2): 5153.720703 Right Ascen at Week(rad): 0.1622667798 Argument of Perigee(rad): -2.329267061 Mean Anom(rad): -1.678628136 Af0(s): 9.722398682e-05 Af1(s/s): 1.455192e-11 week: 358 ******** Week 358 almanac for PRN-31 ******** ID: 31 Health: 0 Eccentricity: 0.01081609726 Time of Applicability(s): 147456 Orbital Inclination(rad): 0.9551211534 Rate of Right Ascen(r/s): -7.691748963e-09 SQRT(A) (m 1/2): 5153.730469 Right Ascen at Week(rad): 0.1952095415 Argument of Perigee(rad): 0.9375244167 Mean Anom(rad): -2.624911898 Af0(s): -0.0001318930054 Af1(s/s): 3.637979e-12 week: 358 ******** Week 358 almanac for PRN-32 ******** ID: 32 Health: 0 Eccentricity: 0.009315013885 Time of Applicability(s): 147456 Orbital Inclination(rad): 0.9676806211 Rate of Right Ascen(r/s): -8.046049436e-09 SQRT(A) (m 1/2): 5153.678223 Right Ascen at Week(rad): -0.8846091951 Argument of Perigee(rad): -2.00799396 Mean Anom(rad): 1.99067638 Af0(s): -7.084538574e-05 Af1(s/s): 1.818989e-11 week: 358